This is the latest recevied weather packets stored in our database for station/object SR3WXA. If no packets are shown the sender has not sent any weather packets the latest 10 day(s).
| Time | Temp. | Humidity | Pressure | Rain* | Wind** | Luminosity | Snow |
|---|---|---|---|---|---|---|---|
| 1788592697 | 16.11° C | 84% | 1012.9 hPa | 0.51 mm | - | 141 W/m² | - |
| 1788592480 | 15.56° C | 85% | 1012.8 hPa | 0.25 mm | - | 411 W/m² | - |
| 1788592397 | 15.56° C | 85% | 1012.8 hPa | 0.25 mm | - | 411 W/m² | - |
| 1788592160 | 15.56° C | 88% | 1012.7 hPa | 0.25 mm | - | 343 W/m² | - |
| 1788592097 | 15.56° C | 88% | 1012.7 hPa | 0.25 mm | - | 343 W/m² | - |
| 1788591895 | 15.56° C | 88% | 1012.6 hPa | 0.25 mm | - | 325 W/m² | - |
| 1788591798 | 15.56° C | 88% | 1012.6 hPa | 0.25 mm | - | 325 W/m² | - |
| 1788591274 | 15° C | 90% | 1012.6 hPa | 0.25 mm | - | 299 W/m² | - |
| 1788591197 | 15° C | 90% | 1012.6 hPa | 0.25 mm | - | 299 W/m² | - |
| 1788591055 | 15° C | 90% | 1012.6 hPa | 0.25 mm | - | 272 W/m² | - |
| 1788590897 | 15° C | 90% | 1012.6 hPa | 0.25 mm | - | 272 W/m² | - |
| 1788590526 | 15° C | 90% | 1012.6 hPa | 0.25 mm | - | 84 W/m² | - |
| 1788590457 | 15° C | 90% | 1012.6 hPa | 0.25 mm | - | 84 W/m² | - |
| 1788590008 | 15° C | 90% | 1012.5 hPa | 0.25 mm | - | 39 W/m² | - |
| 1788589855 | 15° C | 91% | 1012.5 hPa | 0 mm | - | 104 W/m² | - |
| 1788589708 | 15° C | 91% | 1012.5 hPa | 0 mm | - | 104 W/m² | - |
| 1788589468 | 15° C | 90% | 1012.3 hPa | 0 mm | - | 107 W/m² | - |
| 1788589408 | 15° C | 90% | 1012.3 hPa | 0 mm | - | 107 W/m² | - |
| 1788589108 | 15° C | 90% | 1012.3 hPa | 0 mm | - | 135 W/m² | - |
| 1788588911 | 15° C | 88% | 1012.3 hPa | 0 mm | - | 49 W/m² | - |
| 1788588808 | 15° C | 88% | 1012.3 hPa | 0 mm | - | 49 W/m² | - |
| 1788588597 | 15° C | 87% | 1012.3 hPa | 0 mm | - | 30 W/m² | - |
| 1788588508 | 15° C | 87% | 1012.3 hPa | 0 mm | - | 30 W/m² | - |
| 1788588285 | 15° C | 87% | 1012.2 hPa | 0 mm | - | 40 W/m² | - |
| 1788588208 | 15° C | 87% | 1012.2 hPa | 0 mm | - | 40 W/m² | - |
* Rain latest hour (hover to see other rain measurements)
** Current wind speed in m/s (hover to see current wind gust speed)